This demonstration page uses our WeatherBlox Daily Observations layout. Learn more.

Left ArrowRight Arrow

Hourly Observations for October 13, 2016

Temp ( °F °C ) Dew Point ( °F °C ) Humidity (%) Winds ( mph kmh ) Pressure ( in mb ) Visibility ( mi km ) Precip ( " mm )
12:03 am 00:03 Clear with Mist and Fog 14 -10 12 -11 92 92 WNW 3 6 30.27 1025 2 2 0.00 0.00
12:06 am 00:06 Clear with Mist and Fog 12 -11 12 -11 100 100 NW 3 6 30.27 1025 1 1 0.00 0.00
12:23 am 00:23 Clear with Mist and Fog 13 -10.6 12 -11.1 96 96 WNW 3 6 30.27 1025 2 2 0.00 0.00
12:25 am 00:25 Clear with Mist and Fog 12 -11.1 12 -11.1 100 100 W 3 6 30.27 1025 3 5 0.00 0.00
12:53 am 00:53 Clear 12 -11.1 10 -12.2 92 92 W 3 6 30.14 1021 10 16 0.00 0.00
1:16 am 01:16 Mostly Clear 11 -11.7 10 -12.2 96 96 W 3 6 30.24 1024 10 16 0.00 0.00
1:27 am 01:27 Mostly Cloudy with Mist and Fog 11 -11.7 10 -12.2 96 96 W 3 6 30.24 1024 2 3 0.00 0.00
1:32 am 01:32 Mostly Cloudy with Mist and Fog 10 -12 10 -12 100 100 WNW 3 6 30.24 1024 1 2 0.00 0.00
1:49 am 01:49 Mostly Cloudy with Freezing Fog 10 -12 10 -12 100 100 Calm 30.24 1024 1 1 0.00 0.00
1:53 am 01:53 Mostly Cloudy with Mist and Fog 11 -11.7 10 -12.2 96 96 Calm 30.13 1020 1 1 0.00 0.00
2:27 am 02:27 Cloudy with Mist and Fog 11 -11.7 10 -12.2 96 96 NNW 3 6 30.24 1024 1 2 0.00 0.00
2:53 am 02:53 Partly Cloudy with Mist and Fog 11 -11.7 10 -12.2 96 96 Calm 30.11 1020 2 3 0.00 0.00
3:06 am 03:06 Mostly Cloudy with Mist and Fog 10 -12 10 -12 100 100 Calm 30.24 1024 1 2 0.00 0.00
3:12 am 03:12 Mostly Clear with Mist and Fog 10 -12 10 -12 100 100 Calm 30.24 1024 2 2 0.00 0.00
3:16 am 03:16 Mostly Clear with Mist and Fog 10 -12 9 -13 92 92 Calm 30.24 1024 3 5 0.00 0.00
3:32 am 03:32 Mostly Cloudy with Mist and Fog 10 -12 9 -13 92 92 Calm 30.24 1024 6 10 0.00 0.00
3:51 am 03:51 Mostly Cloudy with Mist and Fog 10 -12 10 -12 100 100 Calm 30.24 1024 1 2 0.00 0.00
3:53 am 03:53 Mostly Cloudy with Freezing Fog 12 -11.1 10 -12.2 92 92 Calm 30.10 1019 1 1 0.00 0.00
4:14 am 04:14 Mostly Cloudy with Freezing Fog 12 -11 10 -12 92 92 E 3 6 30.24 1024 0 0 0.00 0.00
4:19 am 04:19 Mostly Cloudy with Mist and Fog 13 -10.6 11 -11.7 92 92 E 3 6 30.24 1024 1 2 0.00 0.00
4:22 am 04:22 Cloudy with Mist and Fog 12 -11 10 -12 92 92 E 5 7 30.24 1024 2 3 0.00 0.00
4:30 am 04:30 Cloudy with Mist and Fog 14 -10 12 -11 92 92 E 7 11 30.18 1022 6 10 0.00 0.00
4:40 am 04:40 Cloudy with Mist and Fog 12 -11 12 -11 100 100 E 8 13 30.21 1023 2 2 0.00 0.00
4:43 am 04:43 Cloudy with Mist and Fog 14 -10 13 -10.6 95 95 E 7 11 30.18 1022 1 1 0.00 0.00
4:53 am 04:53 Mostly Cloudy with Freezing Fog 14 -10 13 -10.6 95 95 ENE 6 9 30.09 1019 1 1 0.00 0.00
5:44 am 05:44 Mostly Cloudy with Freezing Fog 14 -10 12 -11 92 92 NNE 3 6 30.18 1022 0 0 0.00 0.00
5:53 am 05:53 Mostly Cloudy with Freezing Fog 14 -10 12 -11.1 92 92 NE 3 6 30.06 1018 0 0 0.00 0.00
6:53 am 06:53 Mostly Cloudy with Freezing Fog 13 -10.6 12 -11.1 96 96 Calm 30.07 1018 1 1 0.00 0.00
7:23 am 07:23 Mostly Cloudy with Freezing Fog 14 -10 12 -11.1 92 92 WSW 3 6 30.15 1021 0 0 0.00 0.00
7:53 am 07:53 Mostly Cloudy with Freezing Fog 14 -10 13 -10.6 95 95 Calm 30.04 1017 0 0 0.00 0.00
8:53 am 08:53 Mostly Cloudy with Freezing Fog 14 -10 13 -10.6 95 95 W 5 7 30.04 1017 0 0 0.00 0.00
9:53 am 09:53 Mostly Cloudy with Freezing Fog 15 -9.4 14 -10 95 95 WSW 5 7 30.03 1017 0 0 0.00 0.00
10:36 am 10:36 Cloudy with Freezing Fog 16 -9 16 -9 100 100 Calm 30.09 1019 1 1 0.00 0.00
10:45 am 10:45 Cloudy with Mist and Fog 16 -8.9 15 -9.4 96 96 Calm 30.09 1019 2 2 0.00 0.00
10:50 am 10:50 Cloudy with Mist and Fog 16 -9 16 -9 100 100 Calm 30.09 1019 3 5 0.00 0.00
10:53 am 10:53 Cloudy with Mist and Fog 17 -8.3 16 -8.9 95 95 Calm 30.01 1016 5 8 0.00 0.00
11:23 am 11:23 Mostly Cloudy 19 -7.2 19 -7.2 100 100 Calm 30.03 1017 10 16 0.00 0.00
11:53 am 11:53 Cloudy 20 -6.7 18 -7.8 92 92 Calm 29.97 1015 10 16 0.00 0.00
12:53 pm 12:53 Cloudy 24 -4.4 20 -6.7 84 84 NNE 3 6 29.94 1014 10 16 0.00 0.00
1:53 pm 13:53 Cloudy 25 -3.9 23 -5 92 92 Calm 29.90 1013 10 16 0.00 0.00
2:53 pm 14:53 Partly Cloudy 28 -2.2 24 -4.4 85 85 Calm 29.83 1010 10 16 0.00 0.00
3:53 pm 15:53 Sunny 28 -2.2 25 -3.9 88 88 WNW 3 6 29.81 1010 10 16 0.00 0.00
4:53 pm 16:53 Mostly Cloudy 30 -1.1 27 -2.8 88 88 S 3 6 29.78 1009 10 16 0.00 0.00
5:53 pm 17:53 Sunny 30 -1.1 27 -2.8 88 88 Calm 29.76 1008 10 16 0.00 0.00
6:53 pm 18:53 Cloudy 31 -0.6 28 -2.2 89 89 Calm 29.74 1007 10 16 0.00 0.00
7:53 pm 19:53 Cloudy 32 0 30 -1.1 92 92 NW 7 11 29.74 1007 10 16 0.00 0.00
8:53 pm 20:53 Cloudy 32 0 31 -0.6 96 96 SSW 5 7 29.70 1006 10 16 0.00 0.00
9:53 pm 21:53 Cloudy 33 0.6 31 -0.6 92 92 N 3 6 29.69 1005 10 16 0.00 0.00
10:53 pm 22:53 Clear 33 0.6 31 -0.6 92 92 Calm 29.67 1005 10 16 0.00 0.00
11:53 pm 23:53 Mostly Cloudy 35 1.7 30 -1.1 82 82 WSW 12 19 29.64 1004 10 16 0.00 0.00

Powered by AerisWeather